User: anonymous   Login
Location: ?????
(33.6267°N, 35.4675°E)
Time: 15:15:48
(UTC+00:00)
Language:

ATLAS 5 CENTAUR R/B - Orbit

View from above orbital plane
View from above orbital plane
View from above satellite
View from above satellite

Ground track
Ground track

The orbit data is extracted from the following two-line orbital elements,

1 31702U 07027B   20020.75623887 0.00000000  00000-0  00000-0 0    02
2 31702  63.3580 338.9311 0387446  13.5832 346.4168 14.18754375    09
Epoch (UTC): 20 January 2020 18:08:59
Eccentricity: 0.0387446
inclination: 63.3580°
perigee height: 550 km
apogee height: 1109 km
right ascension of ascending node: 338.9311°
argument of perigee: 13.5832°
revolutions per day: 14.18754375
mean anomaly at epoch: 346.4168°
orbit number at epoch: 0

The dashed part of the orbit path shows where the satellite is in the earth's shadow,  

DLR